| time (UTC) | temp C | wind direction | speed KPH | gust KPH | rain 1hr cm | rain 24hr cm | rain mn cm | humidity % | barometer mb |
| 20260505075516 | 11 | 203 | 4.8 | 16.1 | 0.00 | 0.00 | 0.00 | 84 | 1009.9 |
| 20260505074517 | 11 | 180 | 4.8 | 12.9 | 0.00 | 0.00 | 0.00 | 84 | 1009.8 |
| 20260505073516 | 11 | 180 | 4.8 | 14.5 | 0.00 | 0.00 | 0.00 | 83 | 1009.9 |
| 20260505072517 | 11 | 203 | 4.8 | 11.3 | 0.00 | 0.00 | 0.00 | 82 | 1010.0 |
| 20260505071517 | 11 | 180 | 6.4 | 20.9 | 0.00 | 0.00 | 0.00 | 82 | 1010.0 |
| 20260505070537 | 11 | 203 | 6.4 | 17.7 | 0.00 | 0.00 | 0.00 | 81 | 1009.9 |
| 20260505065517 | 11 | 180 | 6.4 | 19.3 | 0.00 | 0.00 | 0.00 | 81 | 1009.9 |
| 20260505064516 | 11 | 203 | 4.8 | 17.7 | 0.00 | 0.00 | 0.00 | 80 | 1009.9 |
| 20260505063558 | 12 | 225 | 6.4 | 19.3 | 0.00 | 0.00 | 0.00 | 80 | 1010.0 |
| 20260505062516 | 12 | 203 | 6.4 | 14.5 | 0.00 | 0.00 | 0.00 | 80 | 1009.9 |
| 20260505061516 | 12 | 180 | 4.8 | 14.5 | 0.00 | 0.00 | 0.00 | 80 | 1009.9 |
| 20260505060536 | 12 | 203 | 4.8 | 17.7 | 0.00 | 0.00 | 0.00 | 80 | 1010.0 |
| 20260505055516 | 12 | 203 | 4.8 | 17.7 | 0.00 | 0.00 | 0.00 | 80 | 1010.1 |
| 20260505054516 | 12 | 203 | 4.8 | 14.5 | 0.00 | 0.00 | 0.00 | 80 | 1010.0 |
| 20260505053516 | 11 | 203 | 4.8 | 14.5 | 0.00 | 0.00 | 0.00 | 80 | 1009.9 |
| 20260505052517 | 11 | 203 | 4.8 | 16.1 | 0.00 | 0.00 | 0.00 | 80 | 1010.0 |
| 20260505051516 | 11 | 180 | 6.4 | 14.5 | 0.00 | 0.00 | 0.00 | 79 | 1010.1 |
| 20260505050516 | 12 | 203 | 8.0 | 16.1 | 0.00 | 0.00 | 0.00 | 79 | 1010.2 |
| 20260505041516 | 12 | 180 | 6.4 | 11.3 | 0.00 | 0.00 | 0.00 | 77 | 1010.1 |
| 20260505040516 | 12 | 180 | 6.4 | 16.1 | 0.00 | 0.00 | 0.00 | 76 | 1010.1 |
| 20260505035517 | 12 | 225 | 6.4 | 17.7 | 0.00 | 0.00 | 0.00 | 76 | 1010.1 |
| 20260505034517 | 12 | 180 | 6.4 | 16.1 | 0.00 | 0.00 | 0.00 | 75 | 1010.0 |
| 20260505033538 | 12 | 180 | 6.4 | 19.3 | 0.00 | 0.00 | 0.00 | 75 | 1010.0 |
| 20260505032517 | 12 | 248 | 6.4 | 14.5 | 0.00 | 0.00 | 0.00 | 74 | 1010.0 |
| 20260505031516 | 12 | 203 | 8.0 | 20.9 | 0.00 | 0.00 | 0.00 | 73 | 1010.0 |
| 20260505030516 | 13 | 203 | 6.4 | 14.5 | 0.00 | 0.00 | 0.00 | 71 | 1010.0 |
| 20260505025516 | 13 | 180 | 4.8 | 11.3 | 0.00 | 0.00 | 0.00 | 70 | 1009.9 |
| 20260505024517 | 13 | 270 | 8.0 | 20.9 | 0.00 | 0.00 | 0.00 | 69 | 1009.9 |
| 20260505023537 | 13 | 248 | 6.4 | 17.7 | 0.00 | 0.00 | 0.00 | 69 | 1009.9 |
| 20260505022516 | 13 | 203 | 6.4 | 14.5 | 0.00 | 0.00 | 0.00 | 70 | 1009.9 |
| 20260505021516 | 13 | 225 | 6.4 | 24.1 | 0.00 | 0.00 | 0.00 | 71 | 1010.0 |
| 20260505020517 | 12 | 180 | 6.4 | 20.9 | 0.00 | 0.00 | 0.00 | 72 | 1010.1 |
| 20260505015537 | 13 | 225 | 8.0 | 20.9 | 0.00 | 0.00 | 0.00 | 71 | 1010.0 |
| 20260505014516 | 13 | 248 | 6.4 | 16.1 | 0.00 | 0.00 | 0.00 | 69 | 1009.7 |
| 20260505013516 | 13 | 225 | 6.4 | 17.7 | 0.00 | 0.00 | 0.00 | 68 | 1009.6 |
| 20260505012517 | 14 | 180 | 9.7 | 24.1 | 0.00 | 0.00 | 0.00 | 65 | 1009.5 |
| 20260505011517 | 15 | 180 | 8.0 | 22.5 | 0.00 | 0.00 | 0.00 | 63 | 1009.3 |
| 20260505010517 | 15 | 225 | 6.4 | 20.9 | 0.00 | 0.00 | 0.00 | 63 | 1009.1 |
| 20260505005516 | 15 | 180 | 6.4 | 16.1 | 0.00 | 0.00 | 0.00 | 64 | 1009.0 |
| 20260505004516 | 15 | 203 | 8.0 | 17.7 | 0.00 | 0.00 | 0.00 | 62 | 1008.7 |
| 20260505003516 | 15 | 248 | 9.7 | 27.4 | 0.00 | 0.00 | 0.00 | 60 | 1008.6 |
| 20260505002516 | 16 | 248 | 6.4 | 19.3 | 0.00 | 0.00 | 0.00 | 58 | 1008.2 |
| 20260505001516 | 16 | 180 | 9.7 | 25.7 | 0.00 | 0.00 | 0.00 | 57 | 1007.8 |
| 20260505000516 | 16 | 203 | 11.3 | 22.5 | 0.00 | 0.00 | 0.00 | 57 | 1007.6 |
| 20260504235516 | 16 | 180 | 12.9 | 29.0 | 0.00 | 0.00 | 0.00 | 57 | 1007.5 |
| 20260504234518 | 16 | 203 | 11.3 | 27.4 | 0.00 | 0.00 | 0.00 | 58 | 1007.4 |
| 20260504233517 | 16 | 225 | 14.5 | 33.8 | 0.00 | 0.00 | 0.00 | 57 | 1007.2 |
| 20260504232516 | 16 | 180 | 14.5 | 33.8 | 0.00 | 0.00 | 0.00 | 57 | 1007.0 |
| 20260504231517 | 16 | 203 | 14.5 | 35.4 | 0.00 | 0.00 | 0.00 | 57 | 1006.8 |
| 20260504230516 | 17 | 180 | 17.7 | 48.3 | 0.00 | 0.00 | 0.00 | 56 | 1006.5 |
| 20260504225516 | 17 | 180 | 12.9 | 27.4 | 0.00 | 0.00 | 0.00 | 57 | 1006.5 |
| 20260504224516 | 17 | 180 | 14.5 | 25.7 | 0.00 | 0.00 | 0.00 | 57 | 1006.5 |
| 20260504223516 | 17 | 203 | 11.3 | 19.3 | 0.00 | 0.00 | 0.00 | 55 | 1006.3 |
| 20260504222516 | 17 | 203 | 12.9 | 30.6 | 0.00 | 0.00 | 0.00 | 53 | 1006.2 |
| 20260504221516 | 17 | 180 | 12.9 | 25.7 | 0.00 | 0.00 | 0.00 | 52 | 1006.1 |
| 20260504220536 | 17 | 203 | 11.3 | 19.3 | 0.00 | 0.00 | 0.00 | 51 | 1006.1 |
| 20260504215516 | 19 | 180 | 11.3 | 22.5 | 0.00 | 0.00 | 0.00 | 47 | 1006.1 |
| 20260504214536 | 21 | 180 | 11.3 | 20.9 | 0.00 | 0.00 | 0.00 | 39 | 1005.9 |
| 20260504213516 | 22 | 248 | 8.0 | 24.1 | 0.00 | 0.00 | 0.00 | 34 | 1006.0 |
| 20260504212516 | 22 | 203 | 6.4 | 19.3 | 0.00 | 0.00 | 0.00 | 34 | 1006.0 |
| 20260504211537 | 22 | 270 | 9.7 | 25.7 | 0.00 | 0.00 | 0.00 | 34 | 1005.9 |
| 20260504210516 | 22 | 248 | 11.3 | 24.1 | 0.00 | 0.00 | 0.00 | 33 | 1006.0 |
| 20260504205516 | 22 | 225 | 11.3 | 24.1 | 0.00 | 0.00 | 0.00 | 34 | 1006.1 |
| 20260504204516 | 22 | 203 | 6.4 | 16.1 | 0.00 | 0.00 | 0.00 | 34 | 1006.0 |
| 20260504203556 | 22 | 270 | 9.7 | 22.5 | 0.00 | 0.00 | 0.00 | 34 | 1006.0 |
| 20260504202516 | 22 | 248 | 11.3 | 25.7 | 0.00 | 0.00 | 0.00 | 33 | 1006.0 |
| 20260504201516 | 22 | 270 | 12.9 | 29.0 | 0.00 | 0.00 | 0.00 | 33 | 1006.1 |
| 20260504200517 | 22 | 225 | 11.3 | 24.1 | 0.00 | 0.00 | 0.00 | 33 | 1006.2 |
| 20260504195516 | 21 | 248 | 16.1 | 29.0 | 0.00 | 0.00 | 0.00 | 33 | 1006.3 |
| 20260504194516 | 22 | 270 | 12.9 | 32.2 | 0.00 | 0.00 | 0.00 | 32 | 1006.3 |
| 20260504193536 | 21 | 248 | 8.0 | 30.6 | 0.00 | 0.00 | 0.00 | 34 | 1006.1 |
| 20260504192517 | 22 | 270 | 9.7 | 17.7 | 0.00 | 0.00 | 0.00 | 33 | 1006.1 |
| 20260504191536 | 21 | 270 | 16.1 | 32.2 | 0.00 | 0.00 | 0.00 | 34 | 1006.3 |
| 20260504190537 | 21 | 203 | 8.0 | 20.9 | 0.00 | 0.00 | 0.00 | 35 | 1006.4 |
| 20260504185516 | 21 | 270 | 14.5 | 25.7 | 0.00 | 0.00 | 0.00 | 34 | 1006.6 |
| 20260504184657 | 21 | 270 | 9.7 | 25.7 | 0.00 | 0.00 | 0.00 | 35 | 1006.4 |
| 20260504183515 | 21 | 225 | 14.5 | 27.4 | 0.00 | 0.00 | 0.00 | 35 | 1006.5 |
| 20260504182518 | 21 | 248 | 9.7 | 30.6 | 0.00 | 0.00 | 0.00 | 35 | 1006.6 |
| 20260504181538 | 21 | 203 | 12.9 | 27.4 | 0.00 | 0.00 | 0.00 | 35 | 1006.6 |
| 20260504180539 | 21 | 225 | 12.9 | 30.6 | 0.00 | 0.00 | 0.00 | 34 | 1006.8 |
| 20260504175518 | 20 | 248 | 19.3 | 43.5 | 0.00 | 0.00 | 0.00 | 35 | 1007.0 |
| 20260504174518 | 20 | 270 | 17.7 | 43.5 | 0.00 | 0.00 | 0.00 | 35 | 1007.0 |
| 20260504173517 | 20 | 270 | 12.9 | 27.4 | 0.00 | 0.00 | 0.00 | 36 | 1007.0 |
| 20260504172518 | 20 | 225 | 12.9 | 38.6 | 0.00 | 0.00 | 0.00 | 35 | 1007.2 |
| 20260504171518 | 20 | 248 | 14.5 | 41.8 | 0.00 | 0.00 | 0.00 | 36 | 1006.9 |
| 20260504170517 | 20 | 270 | 14.5 | 35.4 | 0.00 | 0.00 | 0.00 | 37 | 1007.1 |
| 20260504150517 | 18 | 180 | 9.7 | 22.5 | 0.00 | 0.05 | 0.00 | 45 | 1008.5 |
| 20260504140517 | 16 | 270 | 16.1 | 30.6 | 0.00 | 0.05 | 0.00 | 45 | 1009.0 |
| 20260504130518 | 14 | 180 | 4.8 | 11.3 | 0.00 | 0.05 | 0.00 | 56 | 1009.6 |
| 20260504110517 | 10 | 158 | 3.2 | 8.0 | 0.00 | 0.05 | 0.00 | 61 | 1010.3 |
| 20260504100517 | 9 | 270 | 3.2 | 16.1 | 0.00 | 0.05 | 0.00 | 60 | 1010.3 |
| 20260504081537 | 8 | 248 | 4.8 | 12.9 | 0.00 | 0.05 | 0.00 | 58 | 1010.0 |
| 20260504080516 | 8 | 248 | 4.8 | 11.3 | 0.00 | 0.05 | 0.00 | 58 | 1009.9 |